User: anonymous   Login
Location: Clatteringshaws Loch
(55.0508°N, 4.2860°W)
Time: 15:49:49
(UTC+01:00)
Language:

Cosmos 2221 Rocket - Orbit

View from above orbital plane
View from above orbital plane
View from above satellite
View from above satellite

Ground track
Ground track

The orbit data is extracted from the following two-line orbital elements,

1 22237U 92080B   17115.76755449 +.00000145 +00000-0 +16803-4 0  9999
2 22237 082.5122 166.4918 0020235 021.4282 118.7767 14.78312534315604
Epoch (UTC): 25 April 2017 18:25:16
Eccentricity: 0.0020235
inclination: 82.5122°
perigee height: 620 km
apogee height: 649 km
right ascension of ascending node: 166.4918°
argument of perigee: 21.4282°
revolutions per day: 14.78312534
mean anomaly at epoch: 118.7767°
orbit number at epoch: 31560

The dashed part of the orbit path shows where the satellite is in the earth's shadow,  

DLR